LASARSAT

Last updated on Wed Oct 29 2025 00:03:53 GMT+0000 (Coordinated Universal Time)

1 62391U 24247Q 25301.51516485 .00029811 00000+0 96600-3 0 9990 2 62391 44.9786 109.6547 0005451 193.5346 166.5393 15.31529717 47622
UTC large
Height (km)
Speed (km/s)
/
Latitude / Longitude
Inclination (degrees)
Orbital Period (minutes)
Azimuth
Elevation
Range (km)
Doppler Factor

Next 0 passes for location: London (51.5072 / 0.1276)

Sorry there are no passes over London.